| time (UTC) | temp F | wind direction | speed knots | gust knots | rain 1hr in | rain 24hr in | rain mn in | humidity % | barometer mb |
| 20260502164027 | 73 | 71 | 2.6 | 2.6 | 0.00 | 0.10 | 0.00 | 53 | 1022.4 |
| 20260502163527 | 73 | 16 | 1.7 | 4.3 | 0.00 | 0.10 | 0.00 | 52 | 1022.3 |
| 20260502163028 | 72 | 40 | 1.7 | 2.6 | 0.00 | 0.11 | 0.00 | 58 | 1022.4 |
| 20260502162527 | 72 | 12 | 1.7 | 2.6 | 0.00 | 0.11 | 0.00 | 59 | 1022.4 |
| 20260502161527 | 71 | 49 | 0.9 | 2.6 | 0.00 | 0.12 | 0.00 | 58 | 1022.4 |
| 20260502160527 | 69 | 108 | 1.7 | 2.6 | 0.00 | 0.13 | 0.00 | 58 | 1022.4 |
| 20260502152027 | 64 | 61 | 0.9 | 2.6 | 0.00 | 0.16 | 0.00 | 67 | 1022.0 |
| 20260502151527 | 64 | 54 | 1.7 | 2.6 | 0.00 | 0.16 | 0.00 | 68 | 1022.0 |
| 20260502151027 | 64 | 7 | 2.6 | 4.3 | 0.00 | 0.16 | 0.00 | 72 | 1022.0 |
| 20260502150527 | 64 | 65 | 1.7 | 2.6 | 0.00 | 0.17 | 0.00 | 72 | 1021.9 |
| 20260502130527 | 53 | 41 | 0.0 | 0.9 | 0.00 | 0.27 | 0.00 | 89 | 1021.5 |
| 20260502123527 | 52 | 41 | 0.0 | 0.0 | 0.00 | 0.30 | 0.00 | 88 | 1020.6 |
| 20260502123027 | 52 | 41 | 0.0 | 0.0 | 0.00 | 0.30 | 0.00 | 88 | 1020.6 |
| 20260502122527 | 52 | 41 | 0.0 | 0.0 | 0.00 | 0.31 | 0.00 | 88 | 1020.4 |
| 20260502122026 | 52 | 41 | 0.0 | 0.0 | 0.00 | 0.32 | 0.00 | 88 | 1020.3 |
| 20260502121527 | 52 | 41 | 0.0 | 0.0 | 0.00 | 0.32 | 0.00 | 88 | 1020.2 |
| 20260502121027 | 52 | 41 | 0.0 | 0.0 | 0.00 | 0.33 | 0.00 | 88 | 1020.2 |
| 20260502120528 | 52 | 41 | 0.0 | 0.0 | 0.00 | 0.33 | 0.00 | 88 | 1020.1 |
| 20260502115527 | 52 | 41 | 0.0 | 0.0 | 0.00 | 0.34 | 0.00 | 88 | 1019.9 |
| 20260502115027 | 52 | 41 | 0.0 | 0.0 | 0.00 | 0.35 | 0.00 | 88 | 1019.8 |
| 20260502114527 | 52 | 41 | 0.0 | 0.0 | 0.00 | 0.35 | 0.00 | 88 | 1019.8 |
| 20260502114027 | 52 | 41 | 0.0 | 0.0 | 0.00 | 0.36 | 0.00 | 88 | 1019.7 |
| 20260502113027 | 52 | 41 | 0.0 | 0.0 | 0.00 | 0.36 | 0.00 | 88 | 1019.6 |
| 20260502112526 | 52 | 41 | 0.0 | 0.0 | 0.00 | 0.36 | 0.00 | 88 | 1019.5 |
| 20260502112026 | 52 | 41 | 0.0 | 0.0 | 0.00 | 0.36 | 0.00 | 88 | 1019.4 |
| 20260502111527 | 52 | 41 | 0.0 | 0.0 | 0.00 | 0.36 | 0.00 | 88 | 1019.4 |
| 20260502111027 | 52 | 41 | 0.0 | 0.0 | 0.00 | 0.36 | 0.00 | 88 | 1019.4 |
| 20260502110026 | 53 | 41 | 0.0 | 0.0 | 0.00 | 0.36 | 0.00 | 88 | 1019.2 |
| 20260502105526 | 53 | 41 | 0.0 | 0.0 | 0.00 | 0.36 | 0.00 | 88 | 1019.1 |
| 20260502105026 | 53 | 41 | 0.0 | 0.0 | 0.00 | 0.36 | 0.00 | 88 | 1019.1 |
| 20260502104027 | 53 | 41 | 0.0 | 0.0 | 0.00 | 0.36 | 0.00 | 88 | 1019.0 |
| 20260502103527 | 53 | 41 | 0.0 | 0.0 | 0.00 | 0.36 | 0.00 | 88 | 1018.9 |
| 20260502103026 | 53 | 41 | 0.0 | 0.0 | 0.00 | 0.36 | 0.00 | 88 | 1018.8 |
| 20260502102526 | 53 | 41 | 0.0 | 0.0 | 0.00 | 0.36 | 0.00 | 88 | 1018.8 |
| 20260502101527 | 53 | 41 | 0.0 | 0.0 | 0.00 | 0.36 | 0.00 | 88 | 1018.6 |
| 20260502101026 | 54 | 41 | 0.0 | 0.0 | 0.00 | 0.36 | 0.00 | 88 | 1018.6 |
| 20260502091527 | 54 | 41 | 0.0 | 0.0 | 0.00 | 0.36 | 0.00 | 89 | 1018.5 |
| 20260502091027 | 54 | 41 | 0.0 | 0.0 | 0.00 | 0.36 | 0.00 | 88 | 1018.5 |
| 20260502090527 | 54 | 41 | 0.0 | 0.0 | 0.00 | 0.36 | 0.00 | 88 | 1018.5 |
| 20260502071527 | 55 | 41 | 0.0 | 0.0 | 0.00 | 0.36 | 0.00 | 88 | 1018.5 |
| 20260502071027 | 55 | 41 | 0.0 | 0.0 | 0.00 | 0.36 | 0.00 | 88 | 1018.6 |
| 20260502070527 | 55 | 41 | 0.0 | 0.0 | 0.00 | 0.36 | 0.00 | 88 | 1018.6 |
| 20260502065526 | 55 | 41 | 0.0 | 0.0 | 0.00 | 0.36 | 0.00 | 88 | 1018.6 |
| 20260502065026 | 55 | 41 | 0.0 | 0.0 | 0.00 | 0.36 | 0.00 | 88 | 1018.6 |
| 20260502064526 | 55 | 41 | 0.0 | 0.0 | 0.00 | 0.36 | 0.00 | 88 | 1018.6 |
| 20260502064027 | 55 | 41 | 0.0 | 0.0 | 0.00 | 0.36 | 0.00 | 88 | 1018.6 |
| 20260502063527 | 55 | 41 | 0.0 | 0.0 | 0.00 | 0.36 | 0.00 | 88 | 1018.6 |
| 20260502063027 | 55 | 41 | 0.0 | 0.0 | 0.00 | 0.36 | 0.00 | 88 | 1018.7 |
| 20260502062527 | 55 | 41 | 0.0 | 0.0 | 0.00 | 0.36 | 0.00 | 88 | 1018.7 |
| 20260502062027 | 55 | 41 | 0.0 | 0.0 | 0.00 | 0.36 | 0.00 | 88 | 1018.8 |
| 20260502061526 | 55 | 41 | 0.0 | 0.0 | 0.00 | 0.36 | 0.00 | 88 | 1018.9 |
| 20260502061026 | 55 | 41 | 0.0 | 0.0 | 0.00 | 0.36 | 0.00 | 88 | 1018.9 |
| 20260502060527 | 55 | 41 | 0.0 | 0.0 | 0.00 | 0.36 | 0.00 | 88 | 1018.9 |
| 20260502060027 | 55 | 41 | 0.0 | 0.0 | 0.00 | 0.36 | 0.00 | 88 | 1018.9 |
| 20260502055526 | 55 | 41 | 0.0 | 0.0 | 0.00 | 0.36 | 0.00 | 88 | 1018.9 |
| 20260502055027 | 55 | 41 | 0.0 | 0.0 | 0.00 | 0.36 | 0.00 | 88 | 1018.9 |
| 20260502054527 | 55 | 41 | 0.0 | 0.0 | 0.00 | 0.36 | 0.00 | 88 | 1018.9 |
| 20260502054027 | 55 | 41 | 0.0 | 0.0 | 0.00 | 0.36 | 0.00 | 88 | 1018.9 |
| 20260502053527 | 55 | 41 | 0.0 | 0.0 | 0.00 | 0.36 | 0.00 | 88 | 1018.9 |
| 20260502053026 | 55 | 41 | 0.0 | 0.0 | 0.00 | 0.36 | 0.00 | 88 | 1018.7 |
| 20260502052526 | 55 | 41 | 0.0 | 0.0 | 0.00 | 0.36 | 0.00 | 88 | 1018.7 |
| 20260502052026 | 55 | 41 | 0.0 | 0.0 | 0.00 | 0.36 | 0.00 | 88 | 1018.6 |
| 20260502051526 | 55 | 41 | 0.0 | 0.0 | 0.00 | 0.36 | 0.00 | 88 | 1018.7 |
| 20260502051027 | 55 | 41 | 0.0 | 0.0 | 0.00 | 0.36 | 0.00 | 88 | 1018.7 |
| 20260502050527 | 55 | 41 | 0.0 | 0.0 | 0.00 | 0.36 | 0.00 | 88 | 1018.6 |
| 20260502045526 | 55 | 41 | 0.0 | 0.0 | 0.00 | 0.36 | 0.36 | 88 | 1018.5 |
| 20260502045027 | 55 | 41 | 0.0 | 0.0 | 0.00 | 0.36 | 0.36 | 88 | 1018.4 |
| 20260502044526 | 55 | 41 | 0.0 | 0.0 | 0.00 | 0.36 | 0.36 | 88 | 1018.4 |
| 20260502044026 | 55 | 41 | 0.0 | 0.0 | 0.00 | 0.36 | 0.36 | 88 | 1018.3 |
| 20260502043526 | 55 | 41 | 0.0 | 0.0 | 0.00 | 0.36 | 0.36 | 88 | 1018.2 |
| 20260502043027 | 55 | 41 | 0.0 | 0.0 | 0.00 | 0.36 | 0.36 | 88 | 1018.2 |
| 20260502042527 | 55 | 41 | 0.0 | 0.0 | 0.00 | 0.36 | 0.36 | 88 | 1018.2 |
| 20260502042026 | 56 | 41 | 0.0 | 0.0 | 0.00 | 0.36 | 0.36 | 88 | 1018.3 |
| 20260502041527 | 55 | 41 | 0.0 | 0.0 | 0.00 | 0.36 | 0.36 | 88 | 1018.3 |
| 20260502041027 | 56 | 41 | 0.0 | 0.0 | 0.00 | 0.36 | 0.36 | 88 | 1018.2 |
| 20260502040527 | 56 | 41 | 0.0 | 0.0 | 0.00 | 0.36 | 0.36 | 88 | 1018.1 |
| 20260502040026 | 56 | 41 | 0.0 | 0.0 | 0.00 | 0.36 | 0.36 | 88 | 1018.1 |
| 20260502035527 | 56 | 41 | 0.0 | 0.0 | 0.00 | 0.36 | 0.36 | 88 | 1018.2 |
| 20260502035027 | 56 | 41 | 0.0 | 0.0 | 0.00 | 0.36 | 0.36 | 88 | 1018.1 |
| 20260502034026 | 56 | 41 | 0.0 | 0.0 | 0.00 | 0.36 | 0.36 | 88 | 1018.0 |
| 20260502033027 | 56 | 41 | 0.0 | 0.0 | 0.00 | 0.36 | 0.36 | 88 | 1017.7 |
| 20260502032527 | 56 | 41 | 0.0 | 0.0 | 0.00 | 0.36 | 0.36 | 87 | 1017.8 |
| 20260502032027 | 56 | 41 | 0.0 | 0.0 | 0.00 | 0.36 | 0.36 | 87 | 1017.9 |
| 20260502031527 | 56 | 41 | 0.0 | 0.0 | 0.00 | 0.36 | 0.36 | 87 | 1017.9 |
| 20260502030526 | 56 | 41 | 0.0 | 0.0 | 0.00 | 0.36 | 0.36 | 87 | 1017.8 |
| 20260502025026 | 56 | 41 | 0.0 | 0.0 | 0.00 | 0.36 | 0.36 | 87 | 1017.4 |
| 20260502024527 | 56 | 41 | 0.0 | 0.0 | 0.00 | 0.36 | 0.36 | 87 | 1017.7 |
| 20260502024026 | 56 | 41 | 0.0 | 0.0 | 0.00 | 0.36 | 0.36 | 87 | 1018.2 |
| 20260502023527 | 56 | 41 | 0.0 | 0.0 | 0.00 | 0.36 | 0.36 | 87 | 1018.7 |
| 20260502023027 | 56 | 41 | 0.0 | 0.0 | 0.00 | 0.36 | 0.36 | 87 | 1018.5 |
| 20260502022527 | 56 | 41 | 0.0 | 0.0 | 0.00 | 0.36 | 0.36 | 87 | 1018.1 |
| 20260502022027 | 56 | 41 | 0.0 | 0.0 | 0.00 | 0.36 | 0.36 | 87 | 1017.6 |
| 20260502021527 | 56 | 41 | 0.0 | 0.0 | 0.00 | 0.36 | 0.36 | 87 | 1017.4 |
| 20260502021027 | 56 | 41 | 0.0 | 0.0 | 0.00 | 0.36 | 0.36 | 87 | 1017.8 |
| 20260502020526 | 56 | 41 | 0.0 | 0.0 | 0.00 | 0.36 | 0.36 | 86 | 1017.7 |
| 20260502020026 | 56 | 41 | 0.0 | 0.0 | 0.00 | 0.36 | 0.36 | 86 | 1017.7 |
| 20260502015526 | 56 | 41 | 0.0 | 0.0 | 0.00 | 0.36 | 0.36 | 86 | 1017.6 |
| 20260502015027 | 56 | 41 | 0.0 | 0.0 | 0.00 | 0.36 | 0.36 | 86 | 1017.3 |
| 20260502014527 | 56 | 41 | 0.0 | 0.0 | 0.00 | 0.36 | 0.36 | 86 | 1017.0 |
| 20260502014026 | 56 | 41 | 0.0 | 0.0 | 0.00 | 0.36 | 0.36 | 86 | 1016.9 |
| 20260502013526 | 56 | 41 | 0.0 | 0.0 | 0.00 | 0.36 | 0.36 | 86 | 1016.7 |
| 20260502013027 | 56 | 41 | 0.0 | 0.0 | 0.00 | 0.36 | 0.36 | 86 | 1016.7 |
| 20260502012527 | 56 | 41 | 0.0 | 0.0 | 0.00 | 0.36 | 0.36 | 86 | 1017.0 |
| 20260502012026 | 56 | 41 | 0.0 | 0.0 | 0.01 | 0.36 | 0.36 | 86 | 1017.1 |
| 20260502011527 | 56 | 41 | 0.0 | 0.0 | 0.01 | 0.36 | 0.36 | 86 | 1017.0 |
| 20260502011027 | 57 | 41 | 0.0 | 0.0 | 0.01 | 0.36 | 0.36 | 86 | 1016.9 |
| 20260502010526 | 57 | 41 | 0.0 | 0.0 | 0.01 | 0.36 | 0.36 | 85 | 1016.8 |
| 20260502010026 | 57 | 41 | 0.0 | 0.0 | 0.01 | 0.36 | 0.36 | 85 | 1016.8 |
| 20260502005527 | 57 | 41 | 0.0 | 0.0 | 0.01 | 0.36 | 0.36 | 85 | 1016.9 |
| 20260502005026 | 57 | 41 | 0.0 | 0.0 | 0.01 | 0.36 | 0.36 | 85 | 1017.0 |
| 20260502004526 | 57 | 41 | 0.0 | 0.0 | 0.01 | 0.36 | 0.36 | 85 | 1017.0 |
| 20260502004027 | 57 | 41 | 0.0 | 0.0 | 0.01 | 0.36 | 0.36 | 85 | 1017.1 |
| 20260502003026 | 57 | 41 | 0.0 | 0.0 | 0.01 | 0.36 | 0.36 | 85 | 1016.9 |
| 20260502002527 | 57 | 41 | 0.0 | 0.0 | 0.01 | 0.36 | 0.36 | 85 | 1016.8 |
| 20260502002026 | 57 | 41 | 0.0 | 0.0 | 0.00 | 0.35 | 0.35 | 85 | 1016.7 |
| 20260502001527 | 57 | 41 | 0.0 | 0.0 | 0.00 | 0.35 | 0.35 | 84 | 1016.7 |
| 20260502001026 | 58 | 41 | 0.0 | 0.0 | 0.00 | 0.35 | 0.35 | 84 | 1016.7 |
| 20260502000527 | 58 | 41 | 0.0 | 0.0 | 0.00 | 0.35 | 0.35 | 84 | 1016.9 |
| 20260502000026 | 58 | 41 | 0.0 | 0.0 | 0.00 | 0.35 | 0.35 | 84 | 1016.8 |
| 20260501235527 | 58 | 41 | 0.0 | 0.0 | 0.00 | 0.35 | 0.35 | 84 | 1016.6 |
| 20260501235026 | 58 | 41 | 0.0 | 0.0 | 0.00 | 0.35 | 0.35 | 84 | 1016.3 |
| 20260501234526 | 58 | 41 | 0.0 | 0.0 | 0.00 | 0.35 | 0.35 | 84 | 1016.3 |
| 20260501233526 | 58 | 41 | 0.0 | 0.0 | 0.00 | 0.35 | 0.35 | 83 | 1016.4 |
| 20260501233026 | 58 | 41 | 0.0 | 1.7 | 0.00 | 0.35 | 0.35 | 83 | 1016.3 |
| 20260501232526 | 58 | 41 | 0.9 | 1.7 | 0.00 | 0.35 | 0.35 | 83 | 1016.3 |
| 20260501232026 | 58 | 41 | 0.0 | 1.7 | 0.00 | 0.35 | 0.35 | 83 | 1016.6 |
| 20260501231527 | 58 | 41 | 0.0 | 0.0 | 0.00 | 0.35 | 0.35 | 83 | 1016.7 |
| 20260501231026 | 59 | 41 | 0.0 | 0.0 | 0.00 | 0.35 | 0.35 | 83 | 1016.8 |
| 20260501230526 | 59 | 41 | 0.0 | 0.0 | 0.00 | 0.35 | 0.35 | 83 | 1016.7 |
| 20260501230027 | 59 | 41 | 0.0 | 0.0 | 0.00 | 0.35 | 0.35 | 83 | 1016.6 |
| 20260501225526 | 59 | 41 | 0.0 | 0.0 | 0.00 | 0.35 | 0.35 | 83 | 1016.6 |
| 20260501225026 | 59 | 41 | 0.0 | 0.0 | 0.00 | 0.35 | 0.35 | 83 | 1016.4 |
| 20260501224526 | 59 | 41 | 0.0 | 0.0 | 0.00 | 0.35 | 0.35 | 83 | 1016.3 |
| 20260501224027 | 59 | 41 | 0.0 | 0.0 | 0.00 | 0.35 | 0.35 | 83 | 1016.1 |
| 20260501223527 | 59 | 41 | 0.0 | 0.9 | 0.00 | 0.35 | 0.35 | 83 | 1015.9 |
| 20260501223026 | 59 | 41 | 0.9 | 1.7 | 0.00 | 0.35 | 0.35 | 84 | 1015.7 |
| 20260501222526 | 59 | 41 | 1.7 | 2.6 | 0.00 | 0.35 | 0.35 | 84 | 1015.5 |
| 20260501222027 | 59 | 49 | 0.9 | 2.6 | 0.00 | 0.35 | 0.35 | 85 | 1015.3 |
| 20260501221526 | 58 | 57 | 0.0 | 1.7 | 0.00 | 0.35 | 0.35 | 86 | 1015.2 |
| 20260501221026 | 58 | 57 | 0.9 | 1.7 | 0.00 | 0.35 | 0.35 | 85 | 1015.3 |
| 20260501220527 | 58 | 57 | 0.0 | 0.0 | 0.00 | 0.35 | 0.35 | 85 | 1015.3 |
| 20260501220027 | 58 | 57 | 0.0 | 0.0 | 0.00 | 0.35 | 0.35 | 85 | 1015.2 |
| 20260501215026 | 58 | 57 | 0.0 | 0.0 | 0.00 | 0.35 | 0.35 | 85 | 1015.6 |
| 20260501214526 | 58 | 57 | 0.0 | 0.0 | 0.00 | 0.35 | 0.35 | 85 | 1015.7 |
| 20260501214027 | 58 | 57 | 0.0 | 0.9 | 0.00 | 0.35 | 0.35 | 85 | 1015.8 |
| 20260501213526 | 58 | 57 | 0.0 | 0.9 | 0.00 | 0.35 | 0.35 | 85 | 1015.8 |
| 20260501213027 | 57 | 57 | 0.0 | 0.9 | 0.00 | 0.36 | 0.35 | 85 | 1015.8 |
| 20260501212526 | 57 | 57 | 0.0 | 1.7 | 0.00 | 0.36 | 0.35 | 85 | 1015.8 |
| 20260501212026 | 57 | 57 | 0.0 | 0.9 | 0.00 | 0.36 | 0.35 | 85 | 1015.9 |
| 20260501211526 | 57 | 57 | 0.9 | 2.6 | 0.00 | 0.36 | 0.35 | 85 | 1015.7 |
| 20260501211026 | 57 | 57 | 1.7 | 2.6 | 0.00 | 0.36 | 0.35 | 85 | 1015.6 |
| 20260501210026 | 57 | 61 | 1.7 | 4.3 | 0.00 | 0.36 | 0.35 | 86 | 1015.5 |
| 20260501205526 | 57 | 23 | 2.6 | 6.1 | 0.00 | 0.37 | 0.35 | 86 | 1015.3 |
| 20260501205027 | 57 | 29 | 2.6 | 4.3 | 0.00 | 0.37 | 0.35 | 87 | 1015.0 |
| 20260501204526 | 57 | 58 | 1.7 | 6.1 | 0.00 | 0.37 | 0.35 | 88 | 1014.9 |
| 20260501204026 | 57 | 40 | 1.7 | 2.6 | 0.01 | 0.38 | 0.35 | 88 | 1014.8 |
| 20260501203526 | 57 | 49 | 1.7 | 4.3 | 0.01 | 0.38 | 0.35 | 88 | 1014.6 |
| 20260501203027 | 57 | 71 | 0.9 | 2.6 | 0.01 | 0.38 | 0.35 | 88 | 1014.6 |
| 20260501202527 | 57 | 73 | 1.7 | 2.6 | 0.01 | 0.38 | 0.35 | 89 | 1014.4 |
| 20260501202027 | 57 | 38 | 3.5 | 7.8 | 0.01 | 0.38 | 0.35 | 89 | 1014.5 |
| 20260501201526 | 56 | 77 | 1.7 | 5.2 | 0.01 | 0.38 | 0.35 | 89 | 1014.4 |
| 20260501201027 | 56 | 92 | 0.9 | 4.3 | 0.01 | 0.38 | 0.35 | 89 | 1014.4 |
| 20260501200526 | 56 | 21 | 2.6 | 8.7 | 0.01 | 0.38 | 0.35 | 89 | 1014.4 |
| 20260501200026 | 56 | 68 | 2.6 | 7.0 | 0.02 | 0.38 | 0.35 | 89 | 1014.4 |
| 20260501195026 | 55 | 39 | 1.7 | 2.6 | 0.02 | 0.39 | 0.35 | 89 | 1014.7 |
| 20260501194526 | 55 | 42 | 2.6 | 8.7 | 0.02 | 0.39 | 0.35 | 89 | 1014.6 |
| 20260501194026 | 56 | 55 | 1.7 | 4.3 | 0.02 | 0.38 | 0.34 | 89 | 1014.6 |
| 20260501193527 | 55 | 62 | 1.7 | 2.6 | 0.02 | 0.38 | 0.34 | 89 | 1014.6 |
| 20260501193026 | 56 | 60 | 1.7 | 2.6 | 0.02 | 0.38 | 0.34 | 89 | 1015.4 |
| 20260501192526 | 56 | 33 | 1.7 | 2.6 | 0.02 | 0.38 | 0.34 | 89 | 1015.7 |
| 20260501192027 | 56 | 54 | 1.7 | 7.0 | 0.02 | 0.38 | 0.34 | 89 | 1015.9 |
| 20260501191527 | 56 | 27 | 0.9 | 2.6 | 0.03 | 0.38 | 0.34 | 89 | 1016.0 |
| 20260501191027 | 56 | 15 | 2.6 | 4.3 | 0.03 | 0.38 | 0.34 | 89 | 1016.2 |
| 20260501190026 | 55 | 34 | 0.9 | 2.6 | 0.03 | 0.37 | 0.33 | 89 | 1016.4 |
| 20260501185526 | 55 | 49 | 0.9 | 2.6 | 0.03 | 0.37 | 0.33 | 89 | 1016.5 |
| 20260501185026 | 55 | 49 | 1.7 | 2.6 | 0.03 | 0.37 | 0.33 | 89 | 1016.7 |
| 20260501184526 | 55 | 14 | 2.6 | 7.8 | 0.03 | 0.37 | 0.33 | 89 | 1016.8 |
| 20260501184026 | 55 | 51 | 0.9 | 1.7 | 0.02 | 0.36 | 0.32 | 89 | 1017.0 |
| 20260501183026 | 55 | 51 | 0.0 | 1.7 | 0.03 | 0.36 | 0.32 | 89 | 1016.9 |
| 20260501182526 | 55 | 51 | 0.0 | 2.6 | 0.04 | 0.36 | 0.32 | 89 | 1016.8 |
| 20260501182027 | 55 | 50 | 0.9 | 1.7 | 0.04 | 0.36 | 0.32 | 89 | 1017.0 |
| 20260501181526 | 55 | 47 | 0.9 | 2.6 | 0.03 | 0.35 | 0.31 | 89 | 1017.2 |
| 20260501181026 | 55 | 41 | 0.9 | 2.6 | 0.03 | 0.35 | 0.31 | 89 | 1017.3 |
| 20260501180526 | 55 | 31 | 1.7 | 6.1 | 0.03 | 0.35 | 0.31 | 89 | 1017.4 |
| 20260501180026 | 55 | 51 | 1.7 | 2.6 | 0.03 | 0.34 | 0.30 | 89 | 1017.6 |
| 20260501175526 | 55 | 27 | 1.7 | 2.6 | 0.03 | 0.34 | 0.30 | 89 | 1017.9 |
| 20260501174526 | 55 | 50 | 0.9 | 2.6 | 0.04 | 0.34 | 0.30 | 89 | 1017.9 |
| 20260501174026 | 55 | 44 | 0.0 | 1.7 | 0.04 | 0.34 | 0.30 | 89 | 1017.8 |
| 20260501173527 | 55 | 44 | 0.9 | 1.7 | 0.03 | 0.33 | 0.29 | 89 | 1017.9 |
| 20260501173026 | 55 | 44 | 0.9 | 2.6 | 0.04 | 0.33 | 0.29 | 89 | 1018.0 |
| 20260501172526 | 55 | 28 | 0.9 | 1.7 | 0.03 | 0.32 | 0.28 | 89 | 1018.1 |
| 20260501172026 | 54 | 18 | 0.9 | 1.7 | 0.04 | 0.32 | 0.28 | 89 | 1018.3 |
| 20260501171026 | 54 | 18 | 0.0 | 2.6 | 0.04 | 0.32 | 0.28 | 89 | 1018.5 |
| 20260501170026 | 54 | 17 | 0.9 | 2.6 | 0.04 | 0.31 | 0.27 | 89 | 1018.4 |